STARLINK-32333, 61626

Orbit data source: Space-Track

STARLINK-32333, 61626 is a payload satellite owned by SpaceX/Seattle (US) in LEO that was launched on Wed, 23 Oct 2024 UTC via an FALCON 9 launch vehicle from the Air Force Eastern Test Range (AFETR). Payload-class satellites include a variety of spacecraft equipped with specific instruments for various scientific and technological missions. These include communications satellites like Starlink; space stations such as the ISS; scientific satellites like the Hubble; Earth observation satellites from companies like Planet Labs, Umbra, and HawkEye 360; GPS; miniature CubeSats for education and research; and military/defense satellites.

Loading next visibility...
Identifier
61626, 2024-191F
Orbit
LEO
Country
Flag of USUS
Related business
Manufacturer
SpaceX/Seattle
Mission
Operational Commercial Communications
Bus & Motor
STARLINK V2M, Unknown motor
Mass
730 kg wet, ~700 kg dry
Launch date (UTC)
2024-10-23 (11 months ago)
Launch vehicle
FALCON 9
Launch site
Air Force Eastern Test Range (AFETR)
Object type
Payload
Rocket body
Debris
Shape & HBR
Box + 2 Pan, 14.5 m
Radar Cross Section
36.964 m², Large (>1 m²)

Expand to show TLE details & history
Last TLE update: 1 day ago

TLE from 1 day ago
0 STARLINK-32333
1 61626U 24191F   25260.47740395  .00001145  00000-0  51156-4 0  9995
2 61626  43.0034  56.3704 0001181 293.8219  66.2508 15.27560215 51004
Epoch: 2025-09-17T11:27Z
TLE epoch observation values (Epoch: 2025-09-17T11:27:27.701Z)
Latitude
-0.00007°
Longitude
-112.14788°
Altitude
482.558 km
Speed
7.626 km/s
True Right ascension
03h 45m 28s
True Declination
0° 00' 00"
Sunlit
Object was in full shadow at epoch
Visualization orbit readout
Latitude
Unknown
Longitude
Unknown
Altitude
Unknown
Speed
Unknown
Apparent Right ascension
Unknown
Apparent Declination
Unknown
Sunlit
N/A
Visualization observer readout
Local Sidereal Time
07:21:56
Azimuth
Unknown
Elevation
Unknown
Doppler factor
Unknown
Orbital elements
Apogee altitude
485.863 km
Perigee altitude
484.242 km
Semi-major axis
6,863.19 km
Eccentricity
0.00012
Inclination
43.0034°
RAAN
56.3704°
Arg. of periapsis
293.8219°
True anomaly
66.26319°
Mean anomaly
66.2508°
Eccentric anomaly
66.25699°
Mean motion
3.81728 °/min
Orbital period
94.31 mins
BSTAR
0.000051156
Loading maneuver chart data...
Computing Atmospheric mass density...
Loading historical data...
Loading historical data...
Loading historical data...
Loading historical data...
Loading historical data...
Loading historical data...
Loading historical data...

Documentation

Showing up to 5 results
|